Time,TemperatureF,DewpointF,PressureIn,WindDirection,WindDirectionDegrees,WindSpeedMPH,WindSpeedGustMPH,Humidity,HourlyPrecipIn,Conditions,Clouds,dailyrainin,SoftwareType,DateUTC
2013-01-10 00:05:00,32.3,26.2,30.41,WNW,303,0.0,0.0,78,0.00,CLR,OVC,0.00,WeatherDisplay:10.37,2013-01-10 05:05:00,
2013-01-10 00:10:00,31.9,26.1,30.41,WNW,303,0.0,0.0,79,0.00,CLR,OVC,0.00,WeatherDisplay:10.37,2013-01-10 05:10:00,
2013-01-10 00:15:00,31.5,25.7,30.41,WNW,303,0.0,0.0,79,0.00,CLR,OVC,0.00,WeatherDisplay:10.37,2013-01-10 05:15:00,
2013-01-10 00:20:00,31.1,25.7,30.41,WNW,303,0.0,0.0,80,0.00,CLR,OVC,0.00,WeatherDisplay:10.37,2013-01-10 05:20:00,
2013-01-10 00:25:00,30.8,25.7,30.42,WNW,303,0.0,0.0,81,0.00,CLR,OVC,0.00,WeatherDisplay:10.37,2013-01-10 05:25:00,
2013-01-10 00:30:00,30.5,25.4,30.42,WNW,303,1.0,3.0,81,0.00,CLR,OVC,0.00,WeatherDisplay:10.37,2013-01-10 05:30:00,
2013-01-10 00:35:00,30.3,25.5,30.42,WNW,303,2.0,3.0,82,0.00,CLR,OVC,0.00,WeatherDisplay:10.37,2013-01-10 05:35:00,
2013-01-10 00:40:00,30.3,25.4,30.43,WNW,303,0.0,1.0,82,0.00,CLR,OVC,0.00,WeatherDisplay:10.37,2013-01-10 05:40:00,
2013-01-10 00:45:00,30.0,25.2,30.43,WNW,303,0.0,0.0,82,0.00,CLR,OVC,0.00,WeatherDisplay:10.37,2013-01-10 05:45:00,
2013-01-10 00:50:00,29.7,24.9,30.44,WNW,303,0.0,1.0,82,0.00,CLR,OVC,0.00,WeatherDisplay:10.37,2013-01-10 05:50:00,
2013-01-10 00:55:00,29.5,25.0,30.44,WNW,303,2.0,3.0,83,0.00,CLR,OVC,0.00,WeatherDisplay:10.37,2013-01-10 05:55:00,
2013-01-10 01:00:00,29.4,25.2,30.45,WNW,303,3.0,4.0,84,0.00,CLR,OVC,0.00,WeatherDisplay:10.37,2013-01-10 06:00:00,
2013-01-10 01:05:00,29.4,25.5,30.46,WNW,303,2.0,4.0,85,0.00,CLR,OVC,0.00,WeatherDisplay:10.37,2013-01-10 06:05:00,
2013-01-10 01:10:00,29.4,25.1,30.46,WNW,303,2.0,3.0,84,0.00,CLR,OVC,0.00,WeatherDisplay:10.37,2013-01-10 06:10:00,
2013-01-10 01:15:00,29.2,25.0,30.47,WNW,303,2.0,3.0,84,0.00,CLR,OVC,0.00,WeatherDisplay:10.37,2013-01-10 06:15:00,
2013-01-10 01:20:00,29.1,25.2,30.48,WNW,303,2.0,3.0,85,0.00,CLR,OVC,0.00,WeatherDisplay:10.37,2013-01-10 06:20:00,
2013-01-10 01:25:00,29.2,25.3,30.48,WNW,303,0.0,3.0,85,0.00,CLR,OVC,0.00,WeatherDisplay:10.37,2013-01-10 06:25:00,
2013-01-10 01:30:00,29.2,25.3,30.48,WNW,303,2.0,3.0,85,0.00,CLR,OVC,0.00,WeatherDisplay:10.37,2013-01-10 06:30:00,
2013-01-10 01:35:00,29.2,25.3,30.49,WNW,303,1.0,3.0,85,0.00,CLR,OVC,0.00,WeatherDisplay:10.37,2013-01-10 06:35:00,
2013-01-10 01:40:00,29.3,25.4,30.49,WNW,303,2.0,3.0,85,0.00,CLR,OVC,0.00,WeatherDisplay:10.37,2013-01-10 06:40:00,
2013-01-10 01:45:00,29.4,25.5,30.50,WNW,303,2.0,3.0,85,0.00,CLR,OVC,0.00,WeatherDisplay:10.37,2013-01-10 06:45:00,
2013-01-10 01:50:00,29.5,25.5,30.50,WNW,303,2.0,3.0,85,0.00,CLR,OVC,0.00,WeatherDisplay:10.37,2013-01-10 06:50:00,
2013-01-10 02:00:00,29.7,25.7,30.51,WNW,303,2.0,3.0,85,0.00,CLR,OVC,0.00,WeatherDisplay:10.37,2013-01-10 07:00:00,
2013-01-10 02:05:00,29.8,25.8,30.51,WNW,303,1.0,3.0,85,0.00,CLR,OVC,0.00,WeatherDisplay:10.37,2013-01-10 07:05:00,
2013-01-10 02:10:00,29.8,25.6,30.52,WNW,303,0.0,1.0,84,0.00,CLR,OVC,0.00,WeatherDisplay:10.37,2013-01-10 07:10:00,
2013-01-10 02:15:00,29.8,25.6,30.52,WNW,303,0.0,1.0,84,0.00,CLR,OVC,0.00,WeatherDisplay:10.37,2013-01-10 07:15:00,
2013-01-10 02:20:00,29.9,25.6,30.52,WNW,303,0.0,1.0,84,0.00,CLR,OVC,0.00,WeatherDisplay:10.37,2013-01-10 07:20:00,
2013-01-10 02:25:00,30.0,25.8,30.52,WNW,303,0.0,2.0,84,0.00,CLR,OVC,0.00,WeatherDisplay:10.37,2013-01-10 07:25:00,
2013-01-10 02:30:00,30.1,26.1,30.52,WNW,303,1.0,2.0,85,0.00,CLR,OVC,0.00,WeatherDisplay:10.37,2013-01-10 07:30:00,
2013-01-10 02:35:00,30.1,25.8,30.52,WNW,303,1.0,2.0,84,0.00,CLR,OVC,0.00,WeatherDisplay:10.37,2013-01-10 07:35:00,
2013-01-10 02:40:00,30.2,25.9,30.52,WNW,303,0.0,1.0,84,0.00,CLR,OVC,0.00,WeatherDisplay:10.37,2013-01-10 07:40:00,
2013-01-10 02:45:00,30.1,25.8,30.53,WNW,303,0.0,1.0,84,0.00,CLR,OVC,0.00,WeatherDisplay:10.37,2013-01-10 07:45:00,
2013-01-10 02:50:00,29.9,25.7,30.53,WNW,303,0.0,0.0,84,0.00,CLR,OVC,0.00,WeatherDisplay:10.37,2013-01-10 07:50:00,
2013-01-10 02:55:00,29.7,25.5,30.52,WNW,303,0.0,2.0,84,0.00,CLR,OVC,0.00,WeatherDisplay:10.37,2013-01-10 07:55:00,
2013-01-10 03:00:00,29.6,25.6,30.52,WNW,303,0.0,0.0,85,0.00,CLR,OVC,0.00,WeatherDisplay:10.37,2013-01-10 08:00:00,
2013-01-10 03:05:00,29.6,25.6,30.52,WNW,303,0.0,1.0,85,0.00,CLR,OVC,0.00,WeatherDisplay:10.37,2013-01-10 08:05:00,
2013-01-10 03:10:00,29.6,25.6,30.52,WNW,303,0.0,0.0,85,0.00,CLR,OVC,0.00,WeatherDisplay:10.37,2013-01-10 08:10:00,
2013-01-10 03:15:00,29.4,25.4,30.52,WNW,303,0.0,1.0,85,0.00,CLR,OVC,0.00,WeatherDisplay:10.37,2013-01-10 08:15:00,
2013-01-10 03:20:00,29.3,25.6,30.52,WNW,303,0.0,1.0,86,0.00,CLR,OVC,0.00,WeatherDisplay:10.37,2013-01-10 08:20:00,
2013-01-10 03:25:00,29.4,25.4,30.52,WNW,303,0.0,0.0,85,0.00,CLR,OVC,0.00,WeatherDisplay:10.37,2013-01-10 08:25:00,
2013-01-10 03:30:00,29.2,25.3,30.52,WNW,303,0.0,0.0,85,0.00,CLR,OVC,0.00,WeatherDisplay:10.37,2013-01-10 08:30:00,
2013-01-10 03:35:00,28.9,25.0,30.51,WNW,303,0.0,0.0,85,0.00,CLR,OVC,0.00,WeatherDisplay:10.37,2013-01-10 08:35:00,
2013-01-10 03:40:00,28.7,24.8,30.51,WNW,303,0.0,0.0,85,0.00,CLR,OVC,0.00,WeatherDisplay:10.37,2013-01-10 08:40:00,
2013-01-10 03:45:00,28.4,24.4,30.51,WNW,303,0.0,1.0,85,0.00,CLR,OVC,0.00,WeatherDisplay:10.37,2013-01-10 08:45:00,
2013-01-10 03:50:00,28.1,24.5,30.51,WNW,303,0.0,0.0,86,0.00,CLR,OVC,0.00,WeatherDisplay:10.37,2013-01-10 08:50:00,
2013-01-10 03:55:00,27.9,24.3,30.51,WNW,303,0.0,0.0,86,0.00,CLR,OVC,0.00,WeatherDisplay:10.37,2013-01-10 08:55:00,
2013-01-10 04:00:00,27.7,24.1,30.51,WNW,303,0.0,0.0,86,0.00,CLR,OVC,0.00,WeatherDisplay:10.37,2013-01-10 09:00:00,
2013-01-10 04:05:00,27.5,23.9,30.51,WNW,303,0.0,0.0,86,0.00,CLR,OVC,0.00,WeatherDisplay:10.37,2013-01-10 09:05:00,
2013-01-10 04:10:00,27.3,24.0,30.51,WNW,303,0.0,0.0,87,0.00,CLR,OVC,0.00,WeatherDisplay:10.37,2013-01-10 09:10:00,
2013-01-10 04:15:00,27.2,23.8,30.51,WNW,303,0.0,0.0,87,0.00,CLR,OVC,0.00,WeatherDisplay:10.37,2013-01-10 09:15:00,
2013-01-10 04:20:00,27.1,23.7,30.51,WNW,303,0.0,0.0,87,0.00,CLR,OVC,0.00,WeatherDisplay:10.37,2013-01-10 09:20:00,
2013-01-10 04:25:00,26.9,23.6,30.52,WNW,303,0.0,0.0,87,0.00,CLR,OVC,0.00,WeatherDisplay:10.37,2013-01-10 09:25:00,
2013-01-10 04:30:00,26.8,23.4,30.52,WNW,303,0.0,0.0,87,0.00,CLR,OVC,0.00,WeatherDisplay:10.37,2013-01-10 09:30:00,
2013-01-10 04:35:00,26.6,23.5,30.52,WNW,303,0.0,0.0,88,0.00,CLR,OVC,0.00,WeatherDisplay:10.37,2013-01-10 09:35:00,
2013-01-10 04:40:00,26.5,23.4,30.52,WNW,303,0.0,0.0,88,0.00,CLR,OVC,0.00,WeatherDisplay:10.37,2013-01-10 09:40:00,
2013-01-10 04:45:00,26.4,23.3,30.52,WNW,303,0.0,0.0,88,0.00,CLR,OVC,0.00,WeatherDisplay:10.37,2013-01-10 09:45:00,
2013-01-10 04:50:00,26.3,23.2,30.52,WNW,303,0.0,0.0,88,0.00,CLR,OVC,0.00,WeatherDisplay:10.37,2013-01-10 09:50:00,
2013-01-10 04:55:00,26.2,23.1,30.52,WNW,303,0.0,0.0,88,0.00,CLR,OVC,0.00,WeatherDisplay:10.37,2013-01-10 09:55:00,
2013-01-10 05:00:00,26.1,23.0,30.52,WNW,303,0.0,0.0,88,0.00,CLR,OVC,0.00,WeatherDisplay:10.37,2013-01-10 10:00:00,
2013-01-10 05:05:00,26.0,23.2,30.52,WNW,303,0.0,0.0,89,0.00,CLR,OVC,0.00,WeatherDisplay:10.37,2013-01-10 10:05:00,
2013-01-10 05:10:00,25.8,23.0,30.51,WNW,303,0.0,1.0,89,0.00,CLR,OVC,0.00,WeatherDisplay:10.37,2013-01-10 10:10:00,
2013-01-10 05:15:00,25.8,23.0,30.51,WNW,303,0.0,0.0,89,0.00,CLR,OVC,0.00,WeatherDisplay:10.37,2013-01-10 10:15:00,
2013-01-10 05:20:00,25.8,23.0,30.52,WNW,303,0.0,0.0,89,0.00,CLR,OVC,0.00,WeatherDisplay:10.37,2013-01-10 10:20:00,
2013-01-10 05:25:00,25.7,22.9,30.52,WNW,303,0.0,0.0,89,0.00,CLR,OVC,0.00,WeatherDisplay:10.37,2013-01-10 10:25:00,
2013-01-10 05:30:00,25.6,22.8,30.52,WNW,303,0.0,0.0,89,0.00,CLR,OVC,0.00,WeatherDisplay:10.37,2013-01-10 10:30:00,
2013-01-10 05:35:00,25.6,22.8,30.52,WNW,303,0.0,0.0,89,0.00,CLR,OVC,0.00,WeatherDisplay:10.37,2013-01-10 10:35:00,
2013-01-10 05:40:00,25.5,22.7,30.52,WNW,303,0.0,0.0,89,0.00,CLR,OVC,0.00,WeatherDisplay:10.37,2013-01-10 10:40:00,
2013-01-10 05:45:00,25.4,22.6,30.52,WNW,303,0.0,0.0,89,0.00,CLR,OVC,0.00,WeatherDisplay:10.37,2013-01-10 10:45:00,
2013-01-10 05:50:00,25.4,22.9,30.52,WNW,303,0.0,0.0,90,0.00,CLR,OVC,0.00,WeatherDisplay:10.37,2013-01-10 10:50:00,
2013-01-10 05:55:00,25.3,22.5,30.52,WNW,303,0.0,0.0,89,0.00,CLR,OVC,0.00,WeatherDisplay:10.37,2013-01-10 10:55:00,
2013-01-10 06:00:00,25.2,22.4,30.52,WNW,303,0.0,0.0,89,0.00,CLR,OVC,0.00,WeatherDisplay:10.37,2013-01-10 11:00:00,
2013-01-10 06:05:00,25.1,22.3,30.52,WNW,303,0.0,0.0,89,0.00,CLR,OVC,0.00,WeatherDisplay:10.37,2013-01-10 11:05:00,
2013-01-10 06:10:00,25.0,22.5,30.53,WNW,303,0.0,0.0,90,0.00,CLR,OVC,0.00,WeatherDisplay:10.37,2013-01-10 11:10:00,
2013-01-10 06:15:00,24.9,22.3,30.53,WNW,303,0.0,0.0,90,0.00,CLR,OVC,0.00,WeatherDisplay:10.37,2013-01-10 11:15:00,
2013-01-10 06:20:00,24.8,22.3,30.52,WNW,303,0.0,0.0,90,0.00,CLR,OVC,0.00,WeatherDisplay:10.37,2013-01-10 11:20:00,
2013-01-10 06:25:00,24.9,22.4,30.52,WNW,303,0.0,0.0,90,0.00,CLR,OVC,0.00,WeatherDisplay:10.37,2013-01-10 11:25:00,
2013-01-10 06:30:00,24.9,22.4,30.52,WNW,303,0.0,0.0,90,0.00,CLR,OVC,0.00,WeatherDisplay:10.37,2013-01-10 11:30:00,
2013-01-10 06:35:00,24.9,22.4,30.52,WNW,303,0.0,0.0,90,0.00,CLR,OVC,0.00,WeatherDisplay:10.37,2013-01-10 11:35:00,
2013-01-10 06:40:00,24.7,22.2,30.52,WNW,303,0.0,0.0,90,0.00,CLR,OVC,0.00,WeatherDisplay:10.37,2013-01-10 11:40:00,
2013-01-10 06:45:00,24.7,22.2,30.52,WNW,303,0.0,0.0,90,0.00,CLR,OVC,0.00,WeatherDisplay:10.37,2013-01-10 11:45:00,
2013-01-10 06:50:00,24.7,22.2,30.52,WNW,303,0.0,0.0,90,0.00,CLR,OVC,0.00,WeatherDisplay:10.37,2013-01-10 11:50:00,
2013-01-10 06:55:00,24.7,22.2,30.52,WNW,303,0.0,0.0,90,0.00,CLR,OVC,0.00,WeatherDisplay:10.37,2013-01-10 11:55:00,
2013-01-10 07:00:00,24.7,22.2,30.53,WNW,303,0.0,0.0,90,0.00,FEW,OVC,0.00,WeatherDisplay:10.37,2013-01-10 12:00:00,
2013-01-10 07:05:00,24.6,22.1,30.53,WNW,303,0.0,0.0,90,0.00,FEW,OVC,0.00,WeatherDisplay:10.37,2013-01-10 12:05:00,
2013-01-10 07:10:00,24.6,22.1,30.53,WNW,303,0.0,0.0,90,0.00,FEW,OVC,0.00,WeatherDisplay:10.37,2013-01-10 12:10:00,
2013-01-10 07:15:00,24.6,22.0,30.53,WNW,303,0.0,0.0,90,0.00,FEW,OVC,0.00,WeatherDisplay:10.37,2013-01-10 12:15:00,
2013-01-10 07:20:00,24.5,22.0,30.52,WNW,303,0.0,0.0,90,0.00,FEW,OVC,0.00,WeatherDisplay:10.37,2013-01-10 12:20:00,
2013-01-10 07:25:00,24.5,22.0,30.53,WNW,303,0.0,0.0,90,0.00,FEW,OVC,0.00,WeatherDisplay:10.37,2013-01-10 12:25:00,
2013-01-10 07:30:00,24.5,22.0,30.53,WNW,303,0.0,0.0,90,0.00,FEW,OVC,0.00,WeatherDisplay:10.37,2013-01-10 12:30:00,
2013-01-10 07:35:00,24.5,22.0,30.53,WNW,303,0.0,0.0,90,0.00,FEW,OVC,0.00,WeatherDisplay:10.37,2013-01-10 12:35:00,
2013-01-10 07:40:00,24.5,22.0,30.52,WNW,303,0.0,0.0,90,0.00,FEW,OVC,0.00,WeatherDisplay:10.37,2013-01-10 12:40:00,
2013-01-10 07:45:00,24.6,22.1,30.52,WNW,303,0.0,1.0,90,0.00,FEW,OVC,0.00,WeatherDisplay:10.37,2013-01-10 12:45:00,
2013-01-10 07:50:00,24.4,21.9,30.52,WNW,303,0.0,1.0,90,0.00,FEW,OVC,0.00,WeatherDisplay:10.37,2013-01-10 12:50:00,
2013-01-10 07:55:00,24.5,22.0,30.52,WNW,303,0.0,0.0,90,0.00,FEW,OVC,0.00,WeatherDisplay:10.37,2013-01-10 12:55:00,
2013-01-10 08:00:00,24.5,22.0,30.52,WNW,303,0.0,1.0,90,0.00,BKN,OVC,0.00,WeatherDisplay:10.37,2013-01-10 13:00:00,
2013-01-10 08:05:00,24.6,22.3,30.52,WNW,303,0.0,0.0,91,0.00,BKN,OVC,0.00,WeatherDisplay:10.37,2013-01-10 13:05:00,
2013-01-10 08:10:00,24.7,22.4,30.52,WNW,303,0.0,0.0,91,0.00,BKN,OVC,0.00,WeatherDisplay:10.37,2013-01-10 13:10:00,
2013-01-10 08:15:00,24.7,22.4,30.52,WNW,303,0.0,0.0,91,0.00,BKN,OVC,0.00,WeatherDisplay:10.37,2013-01-10 13:15:00,
2013-01-10 08:20:00,24.7,22.4,30.53,WNW,303,0.0,0.0,91,0.00,BKN,OVC,0.00,WeatherDisplay:10.37,2013-01-10 13:20:00,
2013-01-10 08:25:00,24.7,22.4,30.53,WNW,303,0.0,0.0,91,0.00,BKN,OVC,0.00,WeatherDisplay:10.37,2013-01-10 13:25:00,
2013-01-10 08:30:00,24.7,22.4,30.53,WNW,303,0.0,0.0,91,0.00,BKN,OVC,0.00,WeatherDisplay:10.37,2013-01-10 13:30:00,
2013-01-10 08:35:00,24.8,22.5,30.53,WNW,303,0.0,0.0,91,0.00,BKN,OVC,0.00,WeatherDisplay:10.37,2013-01-10 13:35:00,
2013-01-10 08:40:00,24.8,22.5,30.53,WNW,303,0.0,0.0,91,0.00,BKN,OVC,0.00,WeatherDisplay:10.37,2013-01-10 13:40:00,
2013-01-10 08:45:00,24.9,22.6,30.53,WNW,303,0.0,0.0,91,0.00,BKN,OVC,0.00,WeatherDisplay:10.37,2013-01-10 13:45:00,
2013-01-10 08:50:00,24.9,22.7,30.53,WNW,303,0.0,0.0,91,0.00,BKN,OVC,0.00,WeatherDisplay:10.37,2013-01-10 13:50:00,
2013-01-10 08:55:00,25.0,22.7,30.54,WNW,303,0.0,0.0,91,0.00,BKN,OVC,0.00,WeatherDisplay:10.37,2013-01-10 13:55:00,
2013-01-10 09:00:00,25.1,22.9,30.53,WNW,303,0.0,1.0,91,0.00,BKN,OVC,0.00,WeatherDisplay:10.37,2013-01-10 14:00:00,
2013-01-10 09:05:00,25.3,23.0,30.53,WNW,303,0.0,0.0,91,0.00,BKN,OVC,0.00,WeatherDisplay:10.37,2013-01-10 14:05:00,
2013-01-10 09:10:00,25.8,23.5,30.54,WNW,303,0.0,0.0,91,0.00,BKN,OVC,0.00,WeatherDisplay:10.37,2013-01-10 14:10:00,
2013-01-10 09:15:00,26.3,24.3,30.54,WNW,303,0.0,0.0,92,0.00,BKN,OVC,0.00,WeatherDisplay:10.37,2013-01-10 14:15:00,
2013-01-10 09:20:00,26.8,24.8,30.53,WNW,303,0.0,0.0,92,0.00,BKN,OVC,0.00,WeatherDisplay:10.37,2013-01-10 14:20:00,
2013-01-10 09:25:00,27.3,25.2,30.54,WNW,303,0.0,1.0,92,0.00,BKN,OVC,0.00,WeatherDisplay:10.37,2013-01-10 14:25:00,
2013-01-10 09:30:00,27.6,25.6,30.53,WNW,303,0.0,0.0,92,0.00,BKN,OVC,0.00,WeatherDisplay:10.37,2013-01-10 14:30:00,
2013-01-10 09:35:00,27.9,25.9,30.53,WNW,303,0.0,0.0,92,0.00,BKN,OVC,0.00,WeatherDisplay:10.37,2013-01-10 14:35:00,
2013-01-10 09:40:00,28.3,26.2,30.53,WNW,303,0.0,1.0,92,0.00,BKN,OVC,0.00,WeatherDisplay:10.37,2013-01-10 14:40:00,
2013-01-10 09:45:00,28.7,26.7,30.53,WNW,303,0.0,1.0,92,0.00,BKN,OVC,0.00,WeatherDisplay:10.37,2013-01-10 14:45:00,
2013-01-10 09:50:00,29.3,27.2,30.53,WNW,303,1.0,2.0,92,0.00,BKN,OVC,0.00,WeatherDisplay:10.37,2013-01-10 14:50:00,
2013-01-10 09:55:00,29.7,27.4,30.53,WNW,303,0.0,1.0,91,0.00,BKN,OVC,0.00,WeatherDisplay:10.37,2013-01-10 14:55:00,
2013-01-10 10:00:00,30.2,27.9,30.53,West,278,0.0,4.0,91,0.00,BKN,OVC,0.00,WeatherDisplay:10.37,2013-01-10 15:00:00,
2013-01-10 10:05:00,30.9,28.5,30.53,SE,124,2.0,3.0,91,0.00,BKN,OVC,0.00,WeatherDisplay:10.37,2013-01-10 15:05:00,
2013-01-10 10:10:00,31.4,28.8,30.53,ESE,111,1.0,2.0,90,0.00,BKN,OVC,0.00,WeatherDisplay:10.37,2013-01-10 15:10:00,
2013-01-10 10:15:00,31.7,28.9,30.53,ESE,107,0.0,1.0,89,0.00,BKN,OVC,0.00,WeatherDisplay:10.37,2013-01-10 15:15:00,
2013-01-10 10:20:00,32.2,29.0,30.53,ESE,107,0.0,3.0,88,0.00,BKN,OVC,0.00,WeatherDisplay:10.37,2013-01-10 15:20:00,
2013-01-10 10:30:00,33.1,29.6,30.52,ESE,108,0.0,1.0,87,0.00,BKN,OVC,0.00,WeatherDisplay:10.37,2013-01-10 15:30:00,
2013-01-10 10:35:00,33.4,29.7,30.52,ESE,108,1.0,3.0,86,0.00,BKN,OVC,0.00,WeatherDisplay:10.37,2013-01-10 15:35:00,
2013-01-10 10:40:00,33.9,29.8,30.53,ESE,108,0.0,3.0,85,0.00,BKN,OVC,0.00,WeatherDisplay:10.37,2013-01-10 15:40:00,
2013-01-10 10:50:00,35.0,30.3,30.52,ESE,115,1.0,6.0,83,0.00,BKN,OVC,0.00,WeatherDisplay:10.37,2013-01-10 15:50:00,
2013-01-10 10:55:00,35.7,30.4,30.52,ESE,122,2.0,5.0,81,0.00,BKN,OVC,0.00,WeatherDisplay:10.37,2013-01-10 15:55:00,
2013-01-10 11:00:00,36.4,30.8,30.52,SE,133,0.0,5.0,80,0.00,BKN,OVC,0.00,WeatherDisplay:10.37,2013-01-10 16:00:00,
2013-01-10 11:05:00,37.0,30.7,30.51,SE,132,3.0,7.0,78,0.00,BKN,OVC,0.00,WeatherDisplay:10.37,2013-01-10 16:05:00,
2013-01-10 11:10:00,37.5,30.3,30.51,SE,127,5.0,12.0,75,0.00,BKN,OVC,0.00,WeatherDisplay:10.37,2013-01-10 16:10:00,
2013-01-10 11:15:00,37.7,30.2,30.51,ESE,123,3.0,7.0,74,0.00,BKN,OVC,0.00,WeatherDisplay:10.37,2013-01-10 16:15:00,
2013-01-10 11:20:00,38.1,30.2,30.50,ESE,121,5.0,10.0,73,0.00,BKN,OVC,0.00,WeatherDisplay:10.37,2013-01-10 16:20:00,
2013-01-10 11:30:00,38.9,30.3,30.50,SE,130,2.0,7.0,71,0.00,BKN,OVC,0.00,WeatherDisplay:10.37,2013-01-10 16:30:00,
2013-01-10 11:35:00,39.3,30.3,30.50,SE,128,3.0,9.0,70,0.00,BKN,OVC,0.00,WeatherDisplay:10.37,2013-01-10 16:35:00,
2013-01-10 11:40:00,39.6,30.6,30.49,ESE,117,3.0,8.0,70,0.00,BKN,OVC,0.00,WeatherDisplay:10.37,2013-01-10 16:40:00,
2013-01-10 11:45:00,40.0,31.0,30.49,ESE,117,2.0,7.0,70,0.00,BKN,OVC,0.00,WeatherDisplay:10.37,2013-01-10 16:45:00,
2013-01-10 11:50:00,40.1,30.4,30.48,ESE,112,2.0,9.0,68,0.00,BKN,OVC,0.00,WeatherDisplay:10.37,2013-01-10 16:50:00,
2013-01-10 11:55:00,40.1,29.6,30.48,ESE,116,3.0,13.0,66,0.00,BKN,OVC,0.00,WeatherDisplay:10.37,2013-01-10 16:55:00,
2013-01-10 12:00:00,40.1,29.6,30.48,SE,124,6.0,13.0,66,0.00,BKN,OVC,0.00,WeatherDisplay:10.37,2013-01-10 17:00:00,
2013-01-10 12:05:00,40.0,29.6,30.47,SE,128,5.0,10.0,66,0.00,BKN,OVC,0.00,WeatherDisplay:10.37,2013-01-10 17:05:00,
2013-01-10 12:10:00,40.1,29.6,30.47,ESE,107,3.0,8.0,66,0.00,BKN,OVC,0.00,WeatherDisplay:10.37,2013-01-10 17:10:00,
2013-01-10 12:15:00,40.2,29.7,30.46,ESE,113,1.0,8.0,66,0.00,BKN,OVC,0.00,WeatherDisplay:10.37,2013-01-10 17:15:00,
2013-01-10 12:20:00,40.4,29.6,30.46,SE,124,2.0,7.0,65,0.00,BKN,OVC,0.00,WeatherDisplay:10.37,2013-01-10 17:20:00,
2013-01-10 12:25:00,40.7,30.2,30.45,SE,132,2.0,9.0,66,0.00,BKN,OVC,0.00,WeatherDisplay:10.37,2013-01-10 17:25:00,
2013-01-10 12:30:00,40.9,29.6,30.45,ESE,123,3.0,13.0,64,0.00,BKN,OVC,0.00,WeatherDisplay:10.37,2013-01-10 17:30:00,
2013-01-10 12:35:00,41.1,29.8,30.44,ESE,117,1.0,9.0,64,0.00,BKN,OVC,0.00,WeatherDisplay:10.37,2013-01-10 17:35:00,
2013-01-10 12:40:00,41.4,29.7,30.44,ESE,120,3.0,8.0,63,0.00,BKN,OVC,0.00,WeatherDisplay:10.37,2013-01-10 17:40:00,
2013-01-10 12:45:00,41.6,29.5,30.43,ESE,114,6.0,10.0,62,0.00,BKN,OVC,0.00,WeatherDisplay:10.37,2013-01-10 17:45:00,
2013-01-10 12:50:00,41.8,29.7,30.43,ESE,114,2.0,8.0,62,0.00,BKN,OVC,0.00,WeatherDisplay:10.37,2013-01-10 17:50:00,
2013-01-10 12:55:00,42.1,29.6,30.42,ESE,117,2.0,8.0,61,0.00,BKN,OVC,0.00,WeatherDisplay:10.37,2013-01-10 17:55:00,
2013-01-10 13:00:00,42.5,30.0,30.42,ESE,115,2.0,7.0,61,0.00,BKN,OVC,0.00,WeatherDisplay:10.37,2013-01-10 18:00:00,
2013-01-10 13:05:00,42.7,30.2,30.42,ESE,118,2.0,7.0,61,0.00,BKN,OVC,0.00,WeatherDisplay:10.37,2013-01-10 18:05:00,
2013-01-10 13:10:00,42.8,29.9,30.41,SE,127,1.0,6.0,60,0.00,BKN,OVC,0.00,WeatherDisplay:10.37,2013-01-10 18:10:00,
2013-01-10 13:15:00,42.9,29.1,30.41,SE,127,6.0,10.0,58,0.00,BKN,OVC,0.00,WeatherDisplay:10.37,2013-01-10 18:15:00,
2013-01-10 13:20:00,42.9,29.1,30.41,ESE,117,1.0,8.0,58,0.00,BKN,OVC,0.00,WeatherDisplay:10.37,2013-01-10 18:20:00,
2013-01-10 13:25:00,42.9,29.1,30.40,ESE,120,5.0,10.0,58,0.00,BKN,OVC,0.00,WeatherDisplay:10.37,2013-01-10 18:25:00,
2013-01-10 13:30:00,42.9,29.6,30.40,SE,125,3.0,8.0,59,0.00,BKN,OVC,0.00,WeatherDisplay:10.37,2013-01-10 18:30:00,
2013-01-10 13:35:00,43.1,29.3,30.40,SE,128,3.0,8.0,58,0.00,BKN,OVC,0.00,WeatherDisplay:10.37,2013-01-10 18:35:00,
2013-01-10 13:40:00,43.2,29.4,30.39,SE,128,3.0,9.0,58,0.00,BKN,OVC,0.00,WeatherDisplay:10.37,2013-01-10 18:40:00,
2013-01-10 13:45:00,43.5,29.2,30.39,SE,133,3.0,9.0,57,0.00,BKN,OVC,0.00,WeatherDisplay:10.37,2013-01-10 18:45:00,
2013-01-10 13:50:00,43.8,30.4,30.39,ESE,105,1.0,4.0,59,0.00,BKN,OVC,0.00,WeatherDisplay:10.37,2013-01-10 18:50:00,
2013-01-10 13:55:00,44.1,30.7,30.38,East,96,2.0,6.0,59,0.00,BKN,OVC,0.00,WeatherDisplay:10.37,2013-01-10 18:55:00,
2013-01-10 14:00:00,44.2,30.8,30.38,East,100,0.0,6.0,59,0.00,OVC,OVC,0.00,WeatherDisplay:10.37,2013-01-10 19:00:00,
2013-01-10 14:05:00,44.3,30.4,30.38,East,96,5.0,10.0,58,0.00,OVC,OVC,0.00,WeatherDisplay:10.37,2013-01-10 19:05:00,
2013-01-10 14:10:00,44.3,30.5,30.38,East,95,3.0,6.0,58,0.00,OVC,OVC,0.00,WeatherDisplay:10.37,2013-01-10 19:10:00,
2013-01-10 14:15:00,44.5,31.1,30.38,East,92,2.0,8.0,59,0.00,OVC,OVC,0.00,WeatherDisplay:10.37,2013-01-10 19:15:00,
2013-01-10 14:20:00,44.8,30.5,30.38,East,97,2.0,8.0,57,0.00,OVC,OVC,0.00,WeatherDisplay:10.37,2013-01-10 19:20:00,
2013-01-10 14:25:00,45.1,30.8,30.37,ESE,103,0.0,8.0,57,0.00,OVC,OVC,0.00,WeatherDisplay:10.37,2013-01-10 19:25:00,
2013-01-10 14:30:00,45.2,30.5,30.37,ESE,107,2.0,8.0,56,0.00,OVC,OVC,0.00,WeatherDisplay:10.37,2013-01-10 19:30:00,
2013-01-10 14:35:00,45.3,30.5,30.37,East,100,2.0,7.0,56,0.00,OVC,OVC,0.00,WeatherDisplay:10.37,2013-01-10 19:35:00,
2013-01-10 14:40:00,45.4,30.6,30.36,East,99,2.0,5.0,56,0.00,OVC,OVC,0.00,WeatherDisplay:10.37,2013-01-10 19:40:00,
2013-01-10 14:45:00,45.5,30.7,30.36,ESE,108,2.0,7.0,56,0.00,OVC,OVC,0.00,WeatherDisplay:10.37,2013-01-10 19:45:00,
2013-01-10 14:50:00,45.5,30.3,30.36,ESE,106,1.0,8.0,55,0.00,OVC,OVC,0.00,WeatherDisplay:10.37,2013-01-10 19:50:00,
2013-01-10 14:55:00,45.6,31.2,30.36,ESE,104,1.0,4.0,57,0.00,OVC,OVC,0.00,WeatherDisplay:10.37,2013-01-10 19:55:00,
2013-01-10 15:00:00,45.7,30.4,30.36,ESE,106,1.0,6.0,55,0.00,OVC,OVC,0.00,WeatherDisplay:10.37,2013-01-10 20:00:00,
2013-01-10 15:05:00,45.7,30.0,30.36,ESE,110,3.0,10.0,54,0.00,OVC,OVC,0.00,WeatherDisplay:10.37,2013-01-10 20:05:00,
2013-01-10 15:10:00,45.8,30.5,30.36,ESE,116,2.0,6.0,55,0.00,OVC,OVC,0.00,WeatherDisplay:10.37,2013-01-10 20:10:00,
2013-01-10 15:15:00,45.8,29.6,30.36,SE,124,5.0,9.0,53,0.00,OVC,OVC,0.00,WeatherDisplay:10.37,2013-01-10 20:15:00,
2013-01-10 15:20:00,45.8,29.6,30.35,SE,126,2.0,8.0,53,0.00,OVC,OVC,0.00,WeatherDisplay:10.37,2013-01-10 20:20:00,
2013-01-10 15:25:00,45.7,28.1,30.35,ESE,119,5.0,10.0,50,0.00,OVC,OVC,0.00,WeatherDisplay:10.37,2013-01-10 20:25:00,
2013-01-10 15:30:00,45.6,29.0,30.35,ESE,118,1.0,7.0,52,0.00,OVC,OVC,0.00,WeatherDisplay:10.37,2013-01-10 20:30:00,
2013-01-10 15:35:00,45.5,28.9,30.35,ESE,115,0.0,5.0,52,0.00,OVC,OVC,0.00,WeatherDisplay:10.37,2013-01-10 20:35:00,
2013-01-10 15:40:00,45.4,28.8,30.34,ESE,117,2.0,7.0,52,0.00,OVC,OVC,0.00,WeatherDisplay:10.37,2013-01-10 20:40:00,
2013-01-10 15:45:00,45.1,28.5,30.34,ESE,105,1.0,7.0,52,0.00,OVC,OVC,0.00,WeatherDisplay:10.37,2013-01-10 20:45:00,
2013-01-10 15:50:00,44.9,28.8,30.34,East,101,2.0,6.0,53,0.00,OVC,OVC,0.00,WeatherDisplay:10.37,2013-01-10 20:50:00,
2013-01-10 15:55:00,44.6,29.0,30.33,East,97,2.0,10.0,54,0.00,OVC,OVC,0.00,WeatherDisplay:10.37,2013-01-10 20:55:00,
2013-01-10 16:00:00,44.5,29.3,30.33,East,97,2.0,9.0,55,0.00,OVC,OVC,0.00,WeatherDisplay:10.37,2013-01-10 21:00:00,
2013-01-10 16:05:00,44.3,29.1,30.33,East,94,2.0,12.0,55,0.00,OVC,OVC,0.00,WeatherDisplay:10.37,2013-01-10 21:05:00,
2013-01-10 16:10:00,44.2,29.0,30.32,East,92,1.0,6.0,55,0.00,OVC,OVC,0.00,WeatherDisplay:10.37,2013-01-10 21:10:00,
2013-01-10 16:15:00,44.1,29.4,30.32,East,100,3.0,8.0,56,0.00,OVC,OVC,0.00,WeatherDisplay:10.37,2013-01-10 21:15:00,
2013-01-10 16:20:00,44.1,29.4,30.31,East,101,5.0,7.0,56,0.00,OVC,OVC,0.00,WeatherDisplay:10.37,2013-01-10 21:20:00,
2013-01-10 16:25:00,44.1,29.4,30.31,East,100,3.0,7.0,56,0.00,OVC,OVC,0.00,WeatherDisplay:10.37,2013-01-10 21:25:00,
2013-01-10 16:30:00,44.1,28.9,30.31,East,96,2.0,7.0,55,0.00,OVC,OVC,0.00,WeatherDisplay:10.37,2013-01-10 21:30:00,
2013-01-10 16:35:00,44.1,28.5,30.31,ESE,103,5.0,12.0,54,0.00,OVC,OVC,0.00,WeatherDisplay:10.37,2013-01-10 21:35:00,
2013-01-10 16:40:00,44.1,28.5,30.31,ESE,109,3.0,12.0,54,0.00,OVC,OVC,0.00,WeatherDisplay:10.37,2013-01-10 21:40:00,
2013-01-10 16:45:00,44.1,28.0,30.31,ESE,104,2.0,8.0,53,0.00,OVC,OVC,0.00,WeatherDisplay:10.37,2013-01-10 21:45:00,
2013-01-10 16:50:00,44.0,27.5,30.31,ESE,104,5.0,9.0,52,0.00,OVC,OVC,0.00,WeatherDisplay:10.37,2013-01-10 21:50:00,
2013-01-10 16:55:00,43.9,27.4,30.31,ESE,109,2.0,12.0,52,0.00,OVC,OVC,0.00,WeatherDisplay:10.37,2013-01-10 21:55:00,
2013-01-10 17:00:00,43.9,27.4,30.32,ESE,115,3.0,8.0,52,0.00,BKN,OVC,0.00,WeatherDisplay:10.37,2013-01-10 22:00:00,
2013-01-10 17:05:00,43.8,27.8,30.32,ESE,115,2.0,7.0,53,0.00,BKN,OVC,0.00,WeatherDisplay:10.37,2013-01-10 22:05:00,
2013-01-10 17:10:00,43.6,28.0,30.31,ESE,102,3.0,7.0,54,0.00,BKN,OVC,0.00,WeatherDisplay:10.37,2013-01-10 22:10:00,
2013-01-10 17:15:00,43.4,28.3,30.31,East,96,1.0,4.0,55,0.00,BKN,OVC,0.00,WeatherDisplay:10.37,2013-01-10 22:15:00,
2013-01-10 17:20:00,43.1,28.4,30.31,East,91,2.0,9.0,56,0.00,BKN,OVC,0.00,WeatherDisplay:10.37,2013-01-10 22:20:00,
2013-01-10 17:25:00,42.8,28.2,30.30,East,97,2.0,8.0,56,0.00,BKN,OVC,0.00,WeatherDisplay:10.37,2013-01-10 22:25:00,
2013-01-10 17:30:00,42.7,28.0,30.30,ESE,106,1.0,6.0,56,0.00,BKN,OVC,0.00,WeatherDisplay:10.37,2013-01-10 22:30:00,
2013-01-10 17:35:00,42.5,28.8,30.29,ESE,103,3.0,9.0,58,0.00,BKN,OVC,0.00,WeatherDisplay:10.37,2013-01-10 22:35:00,
2013-01-10 17:40:00,42.3,28.6,30.29,East,95,2.0,9.0,58,0.00,BKN,OVC,0.00,WeatherDisplay:10.37,2013-01-10 22:40:00,
2013-01-10 17:45:00,42.0,28.7,30.28,East,98,3.0,9.0,59,0.00,BKN,OVC,0.00,WeatherDisplay:10.37,2013-01-10 22:45:00,
2013-01-10 17:50:00,41.8,28.1,30.27,East,98,6.0,14.0,58,0.00,BKN,OVC,0.00,WeatherDisplay:10.37,2013-01-10 22:50:00,
2013-01-10 17:55:00,41.6,27.9,30.27,ESE,104,5.0,12.0,58,0.00,BKN,OVC,0.00,WeatherDisplay:10.37,2013-01-10 22:55:00,
2013-01-10 18:00:00,41.4,28.1,30.26,ESE,104,3.0,7.0,59,0.00,OVC,OVC,0.00,WeatherDisplay:10.37,2013-01-10 23:00:00,
2013-01-10 18:05:00,41.2,27.9,30.26,East,95,5.0,8.0,59,0.00,OVC,OVC,0.00,WeatherDisplay:10.37,2013-01-10 23:05:00,
2013-01-10 18:10:00,41.1,28.3,30.27,East,96,5.0,15.0,60,0.00,OVC,OVC,0.00,WeatherDisplay:10.37,2013-01-10 23:10:00,
2013-01-10 18:15:00,41.1,27.9,30.28,East,94,3.0,10.0,59,0.00,OVC,OVC,0.00,WeatherDisplay:10.37,2013-01-10 23:15:00,
2013-01-10 18:20:00,41.1,27.9,30.28,ESE,108,2.0,7.0,59,0.00,OVC,OVC,0.00,WeatherDisplay:10.37,2013-01-10 23:20:00,
2013-01-10 18:25:00,41.1,28.3,30.28,ESE,103,2.0,9.0,60,0.00,OVC,OVC,0.00,WeatherDisplay:10.37,2013-01-10 23:25:00,
2013-01-10 18:30:00,40.9,28.1,30.28,ESE,103,2.0,9.0,60,0.00,OVC,OVC,0.00,WeatherDisplay:10.37,2013-01-10 23:30:00,
2013-01-10 18:35:00,40.8,28.0,30.28,ESE,119,3.0,12.0,60,0.00,OVC,OVC,0.00,WeatherDisplay:10.37,2013-01-10 23:35:00,
2013-01-10 18:40:00,40.7,28.3,30.27,ESE,114,1.0,10.0,61,0.00,OVC,OVC,0.00,WeatherDisplay:10.37,2013-01-10 23:40:00,
2013-01-10 18:45:00,40.5,28.5,30.27,ESE,114,3.0,8.0,62,0.00,OVC,OVC,0.00,WeatherDisplay:10.37,2013-01-10 23:45:00,
2013-01-10 18:50:00,40.3,28.3,30.26,ESE,122,6.0,9.0,62,0.00,OVC,OVC,0.00,WeatherDisplay:10.37,2013-01-10 23:50:00,
2013-01-10 18:55:00,40.1,28.5,30.26,ESE,114,5.0,8.0,63,0.00,OVC,OVC,0.00,WeatherDisplay:10.37,2013-01-10 23:55:00,
2013-01-10 19:00:00,40.0,28.4,30.27,ESE,116,5.0,10.0,63,0.00,OVC,OVC,0.00,WeatherDisplay:10.37,2013-01-11 00:00:00,
2013-01-10 19:05:00,40.0,28.4,30.27,ESE,114,5.0,10.0,63,0.00,OVC,OVC,0.00,WeatherDisplay:10.37,2013-01-11 00:05:00,
2013-01-10 19:10:00,39.9,28.7,30.27,ESE,120,3.0,7.0,64,0.00,OVC,OVC,0.00,WeatherDisplay:10.37,2013-01-11 00:10:00,
2013-01-10 19:15:00,39.9,28.7,30.27,ESE,116,5.0,9.0,64,0.00,OVC,OVC,0.00,WeatherDisplay:10.37,2013-01-11 00:15:00,
2013-01-10 19:20:00,39.8,29.0,30.26,ESE,112,1.0,6.0,65,0.00,OVC,OVC,0.00,WeatherDisplay:10.37,2013-01-11 00:20:00,
2013-01-10 19:25:00,39.6,28.8,30.26,ESE,111,3.0,9.0,65,0.00,OVC,OVC,0.00,WeatherDisplay:10.37,2013-01-11 00:25:00,
2013-01-10 19:30:00,39.6,30.2,30.26,ESE,108,1.0,11.0,69,0.00,OVC,OVC,0.00,WeatherDisplay:10.37,2013-01-11 00:30:00,
2013-01-10 19:35:00,39.5,29.1,30.25,ESE,107,2.0,8.0,66,0.00,OVC,OVC,0.00,WeatherDisplay:10.37,2013-01-11 00:35:00,
2013-01-10 19:40:00,39.4,29.0,30.25,ESE,108,3.0,8.0,66,0.00,OVC,OVC,0.00,WeatherDisplay:10.37,2013-01-11 00:40:00,
2013-01-10 19:45:00,39.3,28.9,30.25,ESE,112,3.0,12.0,66,0.00,OVC,OVC,0.00,WeatherDisplay:10.37,2013-01-11 00:45:00,
2013-01-10 19:50:00,39.3,28.9,30.24,ESE,111,5.0,8.0,66,0.00,OVC,OVC,0.00,WeatherDisplay:10.37,2013-01-11 00:50:00,
2013-01-10 19:55:00,39.3,29.3,30.24,ESE,107,3.0,12.0,67,0.00,OVC,OVC,0.00,WeatherDisplay:10.37,2013-01-11 00:55:00,
2013-01-10 20:00:00,39.2,29.5,30.23,ESE,109,3.0,9.0,68,0.00,OVC,OVC,0.00,WeatherDisplay:10.37,2013-01-11 01:00:00,
2013-01-10 20:05:00,39.0,29.7,30.23,ESE,111,2.0,8.0,69,0.00,OVC,OVC,0.00,WeatherDisplay:10.37,2013-01-11 01:05:00,
2013-01-10 20:10:00,38.9,29.6,30.22,ESE,107,3.0,9.0,69,0.00,OVC,OVC,0.00,WeatherDisplay:10.37,2013-01-11 01:10:00,
2013-01-10 20:15:00,38.8,29.5,30.22,ESE,109,5.0,15.0,69,0.00,OVC,OVC,0.00,WeatherDisplay:10.37,2013-01-11 01:15:00,
2013-01-10 20:20:00,38.8,29.5,30.22,ESE,114,2.0,9.0,69,0.00,OVC,OVC,0.00,WeatherDisplay:10.37,2013-01-11 01:20:00,
2013-01-10 20:25:00,38.8,29.5,30.21,ESE,107,3.0,12.0,69,0.00,OVC,OVC,0.00,WeatherDisplay:10.37,2013-01-11 01:25:00,
2013-01-10 20:30:00,38.8,29.8,30.22,ESE,107,6.0,12.0,70,0.00,OVC,OVC,0.00,WeatherDisplay:10.37,2013-01-11 01:30:00,
2013-01-10 20:35:00,38.6,30.4,30.21,ESE,112,3.0,8.0,72,0.00,OVC,OVC,0.00,WeatherDisplay:10.37,2013-01-11 01:35:00,
2013-01-10 20:40:00,38.4,30.5,30.20,ESE,112,2.0,10.0,73,0.00,OVC,OVC,0.00,WeatherDisplay:10.37,2013-01-11 01:40:00,
2013-01-10 20:45:00,38.1,30.5,30.20,ESE,114,5.0,16.0,74,0.01,RA,OVC,0.01,WeatherDisplay:10.37,2013-01-11 01:45:00,
2013-01-10 20:50:00,37.9,31.3,30.19,ESE,109,3.0,8.0,77,0.00,OVC,OVC,0.01,WeatherDisplay:10.37,2013-01-11 01:50:00,
2013-01-10 20:55:00,37.5,31.6,30.19,East,98,2.0,6.0,79,0.00,OVC,OVC,0.02,WeatherDisplay:10.37,2013-01-11 01:55:00,
2013-01-10 21:00:00,37.1,31.5,30.18,East,96,2.0,6.0,80,0.01,-RA,OVC,0.03,WeatherDisplay:10.37,2013-01-11 02:00:00,
2013-01-10 21:05:00,36.9,31.6,30.18,ESE,104,2.0,14.0,81,0.00,-RA,OVC,0.03,WeatherDisplay:10.37,2013-01-11 02:05:00,
2013-01-10 21:10:00,36.7,32.0,30.18,ESE,109,3.0,8.0,83,0.01,-RA,OVC,0.04,WeatherDisplay:10.37,2013-01-11 02:10:00,
2013-01-10 21:15:00,36.6,31.9,30.17,ESE,113,3.0,7.0,83,0.00,-RA,OVC,0.04,WeatherDisplay:10.37,2013-01-11 02:15:00,
2013-01-10 21:20:00,36.5,32.1,30.17,East,101,1.0,5.0,84,0.01,-RA,OVC,0.05,WeatherDisplay:10.37,2013-01-11 02:20:00,
2013-01-10 21:25:00,36.4,32.0,30.17,ESE,104,2.0,12.0,84,0.01,-RA,OVC,0.06,WeatherDisplay:10.37,2013-01-11 02:25:00,
2013-01-10 21:30:00,36.3,32.2,30.16,ESE,111,3.0,12.0,85,0.00,-RA,OVC,0.06,WeatherDisplay:10.37,2013-01-11 02:30:00,
2013-01-10 21:35:00,36.2,32.4,30.16,ESE,109,3.0,12.0,86,0.01,-RA,OVC,0.07,WeatherDisplay:10.37,2013-01-11 02:35:00,
2013-01-10 21:40:00,36.1,32.3,30.15,ESE,106,5.0,9.0,86,0.00,-RA,OVC,0.07,WeatherDisplay:10.37,2013-01-11 02:40:00,
2013-01-10 21:45:00,36.0,32.3,30.14,ESE,104,3.0,9.0,86,0.00,-RA,OVC,0.07,WeatherDisplay:10.37,2013-01-11 02:45:00,
2013-01-10 21:50:00,36.1,32.6,30.14,ESE,103,5.0,10.0,87,0.00,-RA,OVC,0.07,WeatherDisplay:10.37,2013-01-11 02:50:00,
2013-01-10 22:00:00,36.1,32.6,30.12,ESE,111,3.0,9.0,87,0.00,-RA,OVC,0.08,WeatherDisplay:10.37,2013-01-11 03:00:00,
2013-01-10 22:05:00,36.1,32.6,30.12,East,96,6.0,12.0,87,0.00,-RA,OVC,0.08,WeatherDisplay:10.37,2013-01-11 03:05:00,
2013-01-10 22:10:00,36.1,32.6,30.12,East,86,3.0,8.0,87,0.00,-RA,OVC,0.08,WeatherDisplay:10.37,2013-01-11 03:10:00,
2013-01-10 22:15:00,36.1,32.6,30.11,East,98,5.0,12.0,87,0.00,-RA,OVC,0.09,WeatherDisplay:10.37,2013-01-11 03:15:00,
2013-01-10 22:20:00,36.1,32.9,30.11,ESE,105,6.0,13.0,88,0.01,-RA,OVC,0.10,WeatherDisplay:10.37,2013-01-11 03:20:00,
2013-01-10 22:25:00,36.1,32.6,30.11,ESE,110,2.0,12.0,87,0.01,-RA,OVC,0.11,WeatherDisplay:10.37,2013-01-11 03:25:00,
2013-01-10 22:30:00,36.1,32.9,30.10,ESE,107,3.0,14.0,88,0.01,-RA,OVC,0.12,WeatherDisplay:10.37,2013-01-11 03:30:00,
2013-01-10 22:35:00,36.1,32.9,30.10,ESE,108,5.0,12.0,88,0.00,-RA,OVC,0.12,WeatherDisplay:10.37,2013-01-11 03:35:00,
2013-01-10 22:40:00,36.1,32.9,30.10,ESE,113,5.0,14.0,88,0.00,-RA,OVC,0.13,WeatherDisplay:10.37,2013-01-11 03:40:00,
2013-01-10 22:45:00,36.1,33.2,30.10,ESE,112,3.0,13.0,89,0.01,-RA,OVC,0.14,WeatherDisplay:10.37,2013-01-11 03:45:00,
2013-01-10 22:50:00,36.2,33.3,30.09,ESE,109,5.0,12.0,89,0.01,-RA,OVC,0.15,WeatherDisplay:10.37,2013-01-11 03:50:00,
2013-01-10 22:55:00,36.1,33.2,30.08,ESE,106,3.0,8.0,89,0.03,-RA,OVC,0.18,WeatherDisplay:10.37,2013-01-11 03:55:00,
2013-01-10 23:00:00,36.1,33.2,30.08,ESE,108,5.0,15.0,89,0.02,-RA,OVC,0.21,WeatherDisplay:10.37,2013-01-11 04:00:00,
2013-01-10 23:05:00,36.0,33.1,30.08,ESE,105,5.0,12.0,89,0.01,-RA,OVC,0.22,WeatherDisplay:10.37,2013-01-11 04:05:00,
2013-01-10 23:10:00,36.0,33.4,30.07,ESE,108,5.0,12.0,90,0.01,-RA,OVC,0.23,WeatherDisplay:10.37,2013-01-11 04:10:00,
2013-01-10 23:15:00,36.0,33.1,30.07,ESE,114,3.0,12.0,89,0.00,-RA,OVC,0.23,WeatherDisplay:10.37,2013-01-11 04:15:00,
2013-01-10 23:20:00,36.0,33.4,30.06,ESE,117,5.0,12.0,90,0.01,-RA,OVC,0.24,WeatherDisplay:10.37,2013-01-11 04:20:00,
2013-01-10 23:25:00,36.0,33.4,30.06,ESE,113,5.0,12.0,90,0.01,-RA,OVC,0.25,WeatherDisplay:10.37,2013-01-11 04:25:00,
2013-01-10 23:30:00,36.1,33.5,30.05,ESE,109,3.0,12.0,90,0.01,-RA,OVC,0.27,WeatherDisplay:10.37,2013-01-11 04:30:00,
2013-01-10 23:35:00,36.1,33.5,30.05,ESE,112,3.0,13.0,90,0.01,-RA,OVC,0.28,WeatherDisplay:10.37,2013-01-11 04:35:00,
2013-01-10 23:40:00,36.1,33.5,30.05,ESE,107,3.0,12.0,90,0.00,-RA,OVC,0.28,WeatherDisplay:10.37,2013-01-11 04:40:00,
2013-01-10 23:45:00,36.2,33.5,30.05,ESE,108,5.0,13.0,90,0.00,-RA,OVC,0.29,WeatherDisplay:10.37,2013-01-11 04:45:00,
2013-01-10 23:50:00,36.2,33.5,30.05,ESE,113,6.0,14.0,90,0.00,-RA,OVC,0.29,WeatherDisplay:10.37,2013-01-11 04:50:00,
2013-01-10 23:55:00,36.2,33.5,30.04,ESE,117,6.0,12.0,90,0.00,-RA,OVC,0.30,WeatherDisplay:10.37,2013-01-11 04:55:00,